Weather History for Henderson, KY

Change the Weather History Date:

Saturday, February 4, 2012

  Actual Average Record
Temperature  
Mean Temperature 50 °F -  
Max Temperature 53 °F 43 °F 74 °F (1962)
Min Temperature 48 °F 24 °F -2 °F (1970)
Degree Days  
Heating Degree Days 14    
Moisture  
Dew Point 45 °F    
Average Humidity 76    
Maximum Humidity 82    
Minimum Humidity 58    
Precipitation  
Precipitation 0.11 in - - ()
Sea Level Pressure  
Sea Level Pressure 30.05 in    
Wind  
Wind Speed 5 mph (East)    
Max Wind Speed 15 mph    
Max Gust Speed -    
Visibility 6 miles    
Events      
Averages and records for this station are not official NWS values.
T = Trace of Precipitation, MM = Missing Value Source: NWS Daily Summary

Daily Weather History Graph

Daily Weather History Graph

Search for Another Location

Airport:

Trip Planner

Search our weather history database for the weather conditions in past years. The results will help you decide how hot, cold, wet, or windy it might be!

Date:

Astronomy

Feb. 04, 2012 Rise Set
Actual Time 6:52 AM CST 5:17 PM CST
Civil Twilight 6:25 AM CST 5:44 PM CST
Nautical Twilight 5:53 AM CST 6:15 PM CST
Astronomical Twilight 5:23 AM CST 6:46 PM CST
Moon 2:16 PM CST (2/4) 4:15 AM CST (2/4)
Length of Visible Light 11h 19m
Length of Day
10h 24m
Waxing Gibbous, 89% of the Moon is Illuminated
Feb 4
Waxing Gibbous
Feb 7
Full
Feb 14
Last Quarter
Feb 21
New
Feb 29
First Quarter

Hourly Weather History & Observations

Time (CST) Temp. Windchill Dew Point Humidity Pressure Visibility Wind Dir Wind Speed Gust Speed Precip Events Conditions
12:15 AM 51.8 °F - 37.4 °F 58% 30.13 in 10.0 mi East 5.8 mph - N/A   Overcast
12:35 AM 51.8 °F - 39.2 °F 62% 30.13 in 10.0 mi East 5.8 mph - N/A   Overcast
12:55 AM 51.8 °F - 37.4 °F 58% 30.12 in 10.0 mi East 5.8 mph - N/A   Overcast
1:15 AM 51.8 °F - 39.2 °F 62% 30.12 in 10.0 mi East 5.8 mph - N/A   Overcast
1:35 AM 51.8 °F - 39.2 °F 62% 30.12 in 10.0 mi East 4.6 mph - N/A   Overcast
1:55 AM 51.8 °F - 39.2 °F 62% 30.11 in 10.0 mi East 5.8 mph - N/A   Overcast
2:15 AM 51.8 °F - 39.2 °F 62% 30.10 in 10.0 mi East 4.6 mph - N/A   Overcast
2:35 AM 51.8 °F - 39.2 °F 62% 30.09 in 10.0 mi ESE 5.8 mph - N/A   Overcast
2:55 AM 51.8 °F - 39.2 °F 62% 30.10 in 10.0 mi SE 4.6 mph - N/A   Overcast
3:15 AM 53.6 °F - 39.2 °F 58% 30.09 in 10.0 mi SE 4.6 mph - N/A   Overcast
3:35 AM 51.8 °F - 41.0 °F 67% 30.08 in 10.0 mi SE 4.6 mph - N/A   Overcast
3:55 AM 53.6 °F - 42.8 °F 67% 30.08 in 10.0 mi SSE 8.1 mph - N/A   Overcast
4:15 AM 53.6 °F - 44.6 °F 72% 30.08 in 10.0 mi SSE 8.1 mph - N/A   Overcast
4:35 AM 53.6 °F - 44.6 °F 72% 30.09 in 10.0 mi South 8.1 mph - N/A   Overcast
5:15 AM 51.8 °F - 44.6 °F 76% 30.10 in 7.0 mi Calm Calm - N/A   Overcast
5:35 AM 51.8 °F - 44.6 °F 76% 30.09 in 5.0 mi Calm Calm - N/A   Overcast
5:55 AM 48.2 °F - 42.8 °F 82% 30.09 in 5.0 mi NE 8.1 mph - N/A   Overcast
6:15 AM 48.2 °F - 41.0 °F 76% 30.08 in 5.0 mi NE 8.1 mph - N/A   Overcast
6:35 AM 48.2 °F - 41.0 °F 76% 30.06 in 5.0 mi ENE 10.4 mph - N/A   Overcast
6:55 AM 50.0 °F - 42.8 °F 76% 30.05 in 4.0 mi ESE 11.5 mph - 0.09 in   Overcast
7:16 AM 50.0 °F - 44.6 °F 82% 30.03 in 7.0 mi SE 15.0 mph - 0.01 in   Overcast
7:35 AM 50.0 °F - 44.6 °F 82% 30.06 in 9.0 mi SSE 3.5 mph - 0.02 in   Overcast
7:55 AM 51.8 °F - 44.6 °F 76% 30.06 in 9.0 mi East 3.5 mph - 0.02 in   Overcast
8:15 AM 51.8 °F - 44.6 °F 76% 30.07 in 7.0 mi East 3.5 mph - N/A   Overcast
8:35 AM 51.8 °F - 44.6 °F 76% 30.06 in 6.0 mi East 5.8 mph - N/A   Overcast
8:55 AM 51.8 °F - 44.6 °F 76% 30.06 in 4.0 mi ENE 5.8 mph - N/A   Overcast
9:15 AM 51.8 °F - 44.6 °F 76% 30.06 in 8.0 mi East 4.6 mph - N/A   Overcast
9:35 AM 51.8 °F - 46.4 °F 82% 30.05 in 7.0 mi East 5.8 mph - N/A   Overcast
9:55 AM 51.8 °F - 46.4 °F 82% 30.05 in 8.0 mi East 5.8 mph - N/A   Overcast
10:15 AM 51.8 °F - 46.4 °F 82% 30.05 in 8.0 mi East 3.5 mph - N/A   Overcast
10:35 AM 51.8 °F - 46.4 °F 82% 30.06 in 8.0 mi Calm Calm - N/A   Overcast
10:55 AM 53.6 °F - 46.4 °F 77% 30.05 in 7.0 mi East 3.5 mph - N/A   Overcast
11:15 AM 51.8 °F - 44.6 °F 76% 30.04 in 3.0 mi NNE 4.6 mph - N/A   Overcast
11:35 AM 51.8 °F - 46.4 °F 82% 30.03 in 2.0 mi Calm Calm - N/A   Overcast
11:55 AM 53.6 °F - 46.4 °F 77% 30.03 in 1.8 mi Calm Calm - N/A   Overcast
12:15 PM 53.6 °F - 48.2 °F 82% 30.02 in 1.5 mi NE 4.6 mph - N/A   Overcast
12:35 PM 53.6 °F - 48.2 °F 82% 30.02 in 2.0 mi Calm Calm - N/A   Overcast
12:55 PM 53.6 °F - 48.2 °F 82% 30.02 in 1.2 mi NE 3.5 mph - N/A   Overcast
1:15 PM 53.6 °F - 48.2 °F 82% 30.01 in 1.2 mi NNE 3.5 mph - N/A   Overcast
1:35 PM 53.6 °F - 48.2 °F 82% 30.01 in 0.8 mi NE 3.5 mph - N/A   Overcast
1:55 PM 53.6 °F - 48.2 °F 82% 30.00 in 1.0 mi ENE 3.5 mph - N/A   Overcast
2:35 PM 53.6 °F - 48.2 °F 82% 30.00 in 0.8 mi NE 3.5 mph - N/A   Overcast
2:55 PM 53.6 °F - 48.2 °F 82% 30.00 in 2.0 mi Calm Calm - N/A   Overcast
3:15 PM 53.6 °F - 48.2 °F 82% 30.00 in 3.0 mi East 3.5 mph - N/A   Overcast
3:35 PM 53.6 °F - 48.2 °F 82% 30.00 in 1.5 mi Calm Calm - N/A   Overcast
3:55 PM 53.6 °F - 48.2 °F 82% 30.01 in 2.5 mi SE 3.5 mph - N/A   Overcast
4:15 PM 53.6 °F - 48.2 °F 82% 30.00 in 2.5 mi SE 3.5 mph - N/A   Overcast
4:35 PM 53.6 °F - 48.2 °F 82% 30.00 in 2.5 mi SSE 3.5 mph - N/A   Overcast
4:55 PM 53.6 °F - 48.2 °F 82% 30.00 in 3.0 mi South 3.5 mph - N/A   Overcast
5:15 PM 53.6 °F - 48.2 °F 82% 30.00 in 3.0 mi Calm Calm - N/A   Overcast
5:35 PM 53.6 °F - 48.2 °F 82% 30.01 in 1.2 mi Calm Calm - N/A   Overcast
5:55 PM 53.6 °F - 48.2 °F 82% 30.01 in 1.5 mi Calm Calm - N/A   Overcast
6:15 PM 53.6 °F - 48.2 °F 82% 30.02 in 9.0 mi WNW 8.1 mph - N/A   Mostly Cloudy
6:35 PM 53.6 °F - 48.2 °F 82% 30.03 in 10.0 mi WNW 6.9 mph - N/A   Overcast
6:55 PM 51.8 °F - 46.4 °F 82% 30.03 in 9.0 mi NW 9.2 mph - N/A   Overcast
7:15 PM 51.8 °F - 46.4 °F 82% 30.04 in 10.0 mi NNW 9.2 mph - N/A   Overcast
7:35 PM 51.8 °F - 46.4 °F 82% 30.04 in 10.0 mi NW 11.5 mph - N/A   Overcast
7:55 PM 50.0 °F - 44.6 °F 82% 30.04 in 10.0 mi NNW 10.4 mph - N/A   Overcast
8:15 PM 50.0 °F - 44.6 °F 82% 30.06 in 10.0 mi NW 8.1 mph - N/A   Overcast
8:35 PM 48.2 °F - 42.8 °F 82% 30.06 in 10.0 mi NNW 6.9 mph - N/A   Overcast
8:55 PM 48.2 °F - 42.8 °F 82% 30.06 in 10.0 mi NNW 6.9 mph - N/A   Overcast
9:15 PM 48.2 °F - 42.8 °F 82% 30.07 in 10.0 mi NNW 10.4 mph - N/A   Overcast
9:35 PM 48.2 °F - 42.8 °F 82% 30.07 in 10.0 mi NNW 9.2 mph - N/A   Overcast
9:55 PM 46.4 °F 41.9 °F 41.0 °F 81% 30.07 in 10.0 mi NW 9.2 mph - N/A   Overcast
10:15 PM 46.4 °F 42.9 °F 41.0 °F 81% 30.07 in 10.0 mi NW 6.9 mph - N/A   Overcast
10:35 PM 46.4 °F 41.9 °F 41.0 °F 81% 30.07 in 10.0 mi NNW 9.2 mph - N/A   Overcast
11:15 PM 46.4 °F 40.7 °F 39.2 °F 76% 30.06 in 10.0 mi North 12.7 mph 18.4 mph N/A   Overcast
11:35 PM 46.4 °F 42.4 °F 39.2 °F 76% 30.08 in 10.0 mi NNW 8.1 mph - N/A   Overcast
11:55 PM 46.4 °F 41.5 °F 39.2 °F 76% 30.08 in 10.0 mi NW 10.4 mph - N/A   Overcast